Temperature
6 6 6 6 6 6 5 5 5 5 5 5 5 4 4 4 4 4 4 3 3 3 3 3 3 3 2 2 2 2 1 1 1 2 2 2 2 2 3 3 2 3 3
6 5 5 5 5 5 5 5 5 5 4 4 4 4 4 4 4 4 3 3 3 3 3 3 3 2 2 2 2 2 1 1 1 1 2 2 2 2 2 2 2 2 2
5 5 5 5 5 5 5 5 4 4 4 4 4 4 4 4 3 3 3 3 3 3 2 2 2 2 2 2 1 1 1 1 1 1 1 1 1 2 2 2 2 2 2
5 5 5 4 4 4 4 4 4 4 4 4 4 3 3 3 3 3 2 2 2 2 2 2 2 1 1 1 1 1 1 1 1 1 1 1 1 1 1 1 1 1 1
4 4 4 4 4 4 4 4 3 3 3 3 3 3 3 3 2 2 2 2 2 2 2 1 1 1 1 1 1 1 1 1 0 0 0 0 0 0 0 0 0 0 1
4 4 4 3 3 3 3 3 3 3 3 3 3 3 3 2 2 2 2 1 1 1 1 1 1 1 1 0 0 0 0 0 -0 -0 -0 -0 -0 -0 -0 -1 -1 -1 -0
3 3 3 3 3 3 3 2 2 2 2 2 2 2 2 2 2 2 1 1 1 1 1 1 1 0 0 0 0 -0 -0 -0 -0 -1 -1 -1 -1 -1 -1 -1 -1 -1 -1
3 3 3 3 2 2 2 2 2 2 2 2 2 2 2 2 1 1 1 1 0 0 0 0 0 0 -0 -0 -0 -0 -0 -0 -1 -1 -1 -1 -1 -1 -1 -1 -1 -1 -1
3 2 2 2 2 2 2 2 1 1 1 1 1 1 1 1 1 1 0 0 0 0 0 -0 -0 -0 -0 -1 -1 -1 -1 -1 -1 -1 -1 -1 -1 -2 -2 -2 -2 -2 -2
2 2 2 2 2 1 1 1 1 1 1 1 1 1 1 1 0 0 -0 -0 -1 -1 -0 -0 -1 -1 -1 -1 -1 -1 -1 -1 -1 -1 -1 -1 -2 -2 -2 -2 -2 -3 -3
2 2 1 1 1 1 1 1 0 0 0 0 0 0 0 -0 -0 -1 -1 -1 -1 -1 -1 -1 -1 -1 -1 -1 -2 -2 -2 -2 -2 -2 -2 -2 -2 -2 -2 -2 -2 -3 -3
1 1 1 1 1 0 0 -0 -0 -0 -0 -0 -0 -0 -0 -1 -1 -1 -1 -2 -2 -2 -1 -1 -1 -2 -2 -2 -2 -2 -2 -2 -2 -2 -2 -2 -2 -2 -2 -2 -2 -3 -3
1 1 0 0 0 -0 -0 -1 -1 -1 -1 -1 -1 -1 -1 -1 -1 -2 -2 -2 -2 -2 -2 -2 -2 -2 -2 -2 -2 -2 -3 -3 -3 -3 -3 -3 -3 -3 -3 -3 -3 -3 -3
0 0 -0 -0 -0 -1 -1 -1 -1 -1 -2 -2 -2 -2 -2 -2 -2 -2 -2 -2 -2 -2 -2 -2 -2 -2 -3 -3 -3 -3 -3 -3 -3 -3 -3 -3 -3 -3 -3 -3 -3 -3 -3
-0 -0 -1 -1 -1 -1 -1 -2 -2 -2 -2 -2 -2 -2 -2 -2 -2 -3 -3 -3 -3 -3 -3 -3 -3 -3 -3 -3 -3 -3 -3 -3 -3 -3 -3 -3 -3 -3 -3 -3 -3 -3 -3
-1 -1 -1 -1 -1 -2 -2 -2 -2 -2 -2 -3 -3 -3 -3 -3 -3 -3 -3 -3 -3 -3 -3 -3 -3 -3 -3 -4 -4 -4 -4 -4 -4 -4 -4 -4 -4 -4 -4 -4 -4 -4 -4
-1 -1 -2 -2 -2 -2 -2 -3 -3 -3 -3 -3 -3 -3 -3 -3 -3 -3 -3 -3 -3 -3 -3 -4 -4 -4 -4 -4 -4 -4 -4 -4 -4 -4 -4 -4 -4 -4 -4 -4 -4 -4 -4
-2 -2 -2 -2 -2 -3 -3 -3 -3 -3 -3 -3 -3 -3 -3 -3 -3 -3 -4 -4 -4 -4 -4 -4 -4 -4 -4 -4 -4 -4 -4 -4 -4 -4 -4 -4 -4 -5 -5 -4 -4 -4 -4
-2 -2 -3 -3 -3 -3 -3 -3 -4 -4 -4 -4 -4 -4 -4 -4 -4 -4 -4 -4 -4 -4 -4 -4 -4 -4 -4 -4 -4 -5 -5 -5 -5 -5 -5 -5 -5 -5 -5 -5 -5 -5 -5
-3 -3 -3 -3 -3 -3 -4 -4 -4 -4 -4 -4 -4 -4 -4 -4 -4 -4 -4 -4 -4 -4 -4 -4 -4 -5 -5 -5 -5 -5 -5 -5 -5 -5 -5 -5 -5 -5 -5 -5 -5 -5 -5
-3 -3 -3 -4 -4 -4 -4 -4 -4 -4 -4 -4 -4 -4 -4 -4 -4 -4 -4 -4 -4 -4 -4 -5 -5 -5 -5 -5 -5 -5 -5 -5 -5 -5 -5 -5 -5 -5 -5 -5 -5 -5 -5
-3 -4 -4 -4 -4 -4 -4 -5 -5 -5 -5 -5 -4 -5 -5 -5 -4 -4 -4 -5 -5 -5 -5 -5 -5 -5 -5 -5 -5 -5 -5 -5 -5 -5 -5 -5 -5 -5 -5 -5 -5 -5 -5
-4 -4 -4 -4 -4 -5 -5 -5 -5 -5 -5 -5 -5 -5 -5 -5 -5 -5 -5 -5 -5 -5 -5 -5 -5 -5 -5 -5 -5 -5 -5 -5 -5 -5 -5 -5 -6 -6 -6 -6 -6 -6 -6
-4 -4 -4 -5 -5 -5 -5 -5 -5 -5 -5 -5 -5 -5 -5 -5 -5 -5 -5 -5 -5 -5 -5 -5 -5 -5 -5 -5 -5 -5 -5 -5 -5 -5 -5 -6 -6 -6 -6 -6 -6 -6 -6
-5 -5 -5 -5 -5 -5 -5 -5 -5 -5 -5 -5 -6 -6 -6 -6 -6 -5 -5 -5 -5 -5 -5 -5 -6 -6 -5 -5 -5 -5 -5 -5 -5 -5 -6 -6 -6 -6 -6 -6 -6 -6 -6
-5 -5 -5 -5 -5 -6 -6 -6 -6 -6 -6 -6 -6 -6 -6 -6 -6 -6 -6 -6 -6 -6 -6 -6 -6 -6 -6 -6 -6 -6 -5 -5 -5 -6 -6 -6 -6 -6 -6 -6 -6 -6 -6
Wind_Speed
5 4 4 4 4 4 4 4 4 3 4 4 4 4 4 4 4 3 3 4 4 3 3 3 4 3 2 2 2 2 3 4 7 6 4 4 4 4 5 6 6 6 6
4 5 5 4 4 4 4 4 3 3 4 4 4 4 4 4 4 4 4 4 4 4 4 4 4 3 3 3 3 3 4 4 5 7 5 3 3 3 3 4 5 5 6
4 4 4 4 4 4 4 3 3 3 3 3 3 4 4 4 4 4 4 4 4 4 4 5 4 4 4 4 4 4 4 4 4 5 6 3 2 2 3 4 4 4 5
4 5 4 5 5 4 4 3 3 3 3 3 3 4 4 3 4 4 4 4 4 4 4 4 4 5 6 5 4 5 4 4 4 4 4 4 3 2 1 3 4 4 4
4 4 4 4 3 3 3 3 3 2 3 3 3 3 3 3 4 4 4 4 3 3 3 4 4 5 6 5 4 4 4 4 3 4 4 4 3 2 2 2 4 4 4
4 4 3 3 3 3 3 3 2 2 2 2 2 3 3 3 4 5 4 3 3 4 4 4 4 5 6 7 8 7 6 5 5 4 4 4 5 4 3 3 3 4 4
4 4 4 4 4 3 3 3 3 2 2 2 2 2 3 4 5 5 5 3 3 4 4 3 3 4 4 4 6 7 7 8 8 6 6 6 6 5 4 3 3 4 5
4 4 4 4 4 3 3 3 3 2 2 2 2 2 2 3 5 5 4 2 3 4 4 4 4 4 4 4 3 4 4 5 6 6 6 6 6 5 4 4 4 4 5
5 5 5 5 5 4 4 3 3 2 2 2 2 2 3 4 5 5 3 1 2 3 4 4 4 5 7 6 4 4 5 5 6 7 8 7 7 7 5 2 2 3 4
6 5 5 5 5 5 4 3 2 2 3 2 2 2 3 4 5 5 4 1 2 3 3 3 6 6 7 6 4 4 6 5 3 3 4 5 5 5 5 4 3 3 3
5 4 4 5 5 5 4 3 3 2 2 2 2 2 3 4 5 5 5 2 3 3 3 3 4 7 7 7 6 5 6 4 3 3 3 3 3 3 3 3 4 4 4
4 4 4 4 4 4 4 3 3 3 3 2 2 2 3 3 4 5 5 5 4 3 4 3 4 7 7 6 5 5 5 3 2 2 3 3 3 3 3 3 4 5 6
4 5 4 4 3 4 4 4 3 3 3 3 3 3 3 2 3 6 6 6 6 3 3 5 6 6 5 4 4 4 2 2 2 3 3 4 3 3 2 2 2 3 4
5 5 4 4 4 3 3 4 4 4 4 4 4 4 3 3 3 3 3 3 4 3 2 4 4 4 2 2 2 2 1 2 2 3 3 3 2 2 2 2 2 2 3
5 4 4 4 4 4 4 4 5 5 6 6 5 4 4 4 5 5 3 3 2 3 1 1 1 1 1 1 1 1 1 1 2 2 2 2 2 2 3 2 2 2 2
5 4 4 4 4 3 3 3 5 5 7 8 7 6 5 6 6 6 6 5 4 3 1 1 1 2 2 2 2 2 2 2 2 2 2 2 3 3 3 2 2 2 3
5 5 4 4 4 4 3 3 2 2 4 5 6 6 5 5 5 5 5 4 3 2 0 1 2 2 2 2 2 2 3 2 2 2 3 3 3 3 3 3 2 2 3
5 5 4 4 4 4 4 4 3 3 2 2 3 4 4 4 4 4 3 1 1 1 1 2 2 2 2 2 3 3 3 2 2 3 3 3 3 3 3 3 3 3 3
4 4 4 3 3 3 3 3 3 3 3 2 1 2 3 3 3 2 1 1 2 2 2 2 2 2 2 2 2 3 3 3 3 3 3 3 3 3 3 3 3 4 3
3 5 4 3 3 3 3 3 3 3 3 2 2 2 1 1 1 1 1 1 2 2 2 2 2 2 2 2 2 2 2 3 3 3 3 3 3 3 3 4 3 3 3
3 4 5 3 3 3 3 4 3 3 3 3 2 2 3 2 2 2 2 2 2 2 2 2 2 2 2 2 2 2 3 3 3 3 3 3 3 3 3 3 3 3 2
3 3 3 3 3 3 3 3 3 3 3 3 1 2 3 1 2 2 2 2 2 2 2 2 2 2 2 2 2 2 3 3 3 3 3 2 2 3 3 3 2 2 2
3 3 2 2 2 4 3 2 3 3 3 2 2 1 1 2 2 2 2 2 2 2 2 2 2 2 2 2 3 3 3 4 3 3 3 3 3 3 2 2 3 2 2
3 3 3 3 2 2 3 2 2 2 2 2 2 2 2 2 2 2 2 2 2 2 2 2 2 2 3 3 3 4 4 4 4 4 4 3 3 3 2 2 2 2 2
2 2 2 2 3 2 2 2 2 2 2 2 2 2 2 2 2 2 2 1 1 2 2 2 2 2 3 3 4 4 5 5 4 3 3 3 3 3 2 2 2 2 1
2 2 2 2 2 2 2 2 2 2 2 2 2 2 2 2 2 2 1 1 1 2 2 2 3 3 3 3 4 4 4 4 4 3 2 2 2 2 2 2 2 1 1
Wind_Direction
178 178 176 184 185 177 181 190 192 193 187 191 197 200 203 205 199 197 210 206 209 224 224 219 233 226 225 230 230 231 235 236 258 277 273 287 288 289 310 310 301 296 296
176 172 179 181 175 179 191 195 190 196 199 194 192 199 207 208 203 201 210 212 213 224 229 227 239 234 231 234 232 237 242 241 249 274 286 289 278 289 305 305 311 305 298
167 168 173 178 180 188 193 193 190 195 203 196 189 200 211 213 212 212 211 214 220 225 226 229 236 229 239 242 236 237 244 251 248 263 282 283 282 294 313 308 308 305 307
168 172 183 189 189 191 191 190 193 192 196 202 200 203 210 215 215 214 215 219 224 232 235 236 238 234 237 239 240 237 239 247 252 260 273 281 278 282 297 307 317 313 307
172 181 194 191 180 178 181 186 189 190 199 201 194 199 204 211 213 209 214 219 221 235 243 245 246 247 246 247 248 238 228 236 246 255 265 279 280 290 286 284 298 308 302
179 189 182 173 172 178 178 174 173 181 187 187 196 202 213 227 228 225 223 219 223 230 244 255 254 254 259 264 262 253 236 232 236 240 251 263 267 263 264 273 288 311 302
183 187 179 177 180 184 179 171 179 186 187 194 206 208 225 236 236 236 229 221 230 238 241 250 262 262 266 265 265 265 259 250 241 232 241 249 257 252 253 264 267 274 273
185 190 186 181 186 181 176 184 188 188 191 204 216 222 241 253 249 240 239 223 232 240 241 241 247 257 256 256 247 259 261 258 254 243 238 246 248 251 242 243 253 270 275
194 197 194 186 185 182 186 193 193 187 200 212 218 220 240 264 258 242 245 222 242 256 256 254 250 253 260 255 238 251 266 267 262 253 252 258 264 265 255 243 254 279 287
204 200 194 188 188 192 195 194 192 193 205 213 231 231 237 255 257 248 246 222 244 267 274 264 258 260 265 261 236 238 258 263 262 267 263 265 264 263 261 236 230 251 277
195 188 187 190 193 193 188 183 182 189 189 211 238 253 246 252 254 252 245 231 231 254 265 270 265 266 271 272 260 246 252 253 246 250 259 259 258 255 256 247 236 235 249
179 182 189 191 191 183 177 184 181 181 192 214 237 264 259 255 256 260 257 261 257 247 256 259 264 270 274 275 272 264 256 248 237 246 259 265 265 265 262 258 256 252 246
179 186 188 186 186 182 182 184 183 186 200 219 226 246 265 261 259 264 266 266 266 265 261 265 273 275 277 275 274 262 249 232 236 250 257 260 257 255 257 262 266 270 273
184 188 184 183 188 188 192 191 193 200 207 218 228 239 253 260 257 255 257 263 265 275 276 268 276 286 290 281 274 269 249 230 237 245 255 264 267 258 257 254 269 284 293
185 187 187 190 190 195 203 207 208 214 213 215 223 226 234 249 254 259 269 263 258 259 277 305 330 315 298 288 286 286 290 271 260 254 253 267 277 277 275 270 267 283 280
187 191 191 191 192 196 203 232 239 233 236 238 238 237 248 258 263 261 265 269 266 248 250 256 267 262 258 257 254 266 263 262 265 262 259 261 266 270 277 274 270 271 277
193 196 192 191 193 197 201 207 229 256 247 241 240 242 248 255 258 259 258 255 249 212 245 254 259 260 262 255 245 249 258 258 256 257 260 262 266 268 269 268 272 278 281
194 201 197 196 197 199 206 210 209 214 235 256 255 251 251 249 251 250 242 233 258 235 253 250 259 262 262 256 248 252 256 256 254 255 257 256 255 260 263 265 267 271 280
194 199 198 197 200 200 201 203 205 211 220 231 265 268 254 252 247 247 211 219 239 256 260 260 263 264 265 263 256 247 247 249 253 258 256 257 254 252 257 262 269 274 278
202 207 199 195 194 195 198 199 199 204 211 215 224 231 238 237 247 256 255 257 252 256 254 255 264 263 260 260 259 254 252 253 251 252 255 258 259 253 250 252 257 264 270
197 203 203 196 195 200 201 203 202 202 208 217 231 225 220 220 229 242 252 256 255 255 256 258 261 262 260 261 261 258 257 258 254 252 253 256 261 266 259 254 259 259 256
193 197 196 195 196 197 201 200 196 198 205 209 227 239 231 235 237 250 256 263 264 257 254 255 259 261 257 251 252 257 257 262 262 257 259 261 267 268 258 254 258 261 252
179 182 182 184 188 199 199 192 194 198 203 206 211 220 232 236 246 256 265 269 276 277 274 265 264 271 273 262 251 250 252 257 259 253 252 258 262 263 252 251 255 259 258
172 176 179 183 185 188 189 191 192 197 199 198 204 218 230 242 252 262 272 274 280 285 279 273 270 271 276 280 268 257 253 255 255 244 238 241 249 252 248 249 254 251 250
164 170 176 181 184 186 186 191 195 195 198 205 214 227 240 251 259 269 276 286 286 293 297 294 291 285 275 277 279 274 271 271 265 252 233 232 232 234 241 248 249 248 253
153 159 169 174 182 185 187 194 201 201 206 214 216 222 236 247 256 265 274 285 293 298 302 300 299 299 294 281 277 281 280 275 266 262 233 212 209 221 231 240 237 235 240
Height
1450 1452 1454 1457 1459 1460 1462 1463 1465 1466 1467 1468 1469 1470 1471 1471 1472 1472 1473 1473 1474 1474 1474 1474 1474 1475 1475 1475 1475 1475 1474 1474 1471 1469 1469 1469 1468 1467 1466 1465 1464 1463 1462
1447 1449 1451 1453 1455 1456 1458 1459 1461 1462 1463 1464 1465 1466 1467 1467 1468 1468 1469 1470 1470 1470 1470 1470 1470 1470 1470 1471 1470 1470 1470 1470 1468 1465 1464 1464 1463 1463 1462 1461 1459 1459 1458
1444 1446 1448 1450 1451 1453 1454 1456 1457 1458 1460 1460 1461 1462 1463 1464 1464 1465 1466 1466 1466 1466 1466 1466 1466 1466 1466 1466 1466 1466 1466 1465 1464 1463 1461 1460 1459 1459 1457 1456 1455 1454 1453
1441 1443 1445 1446 1448 1449 1451 1452 1453 1455 1456 1456 1457 1458 1459 1460 1460 1461 1462 1462 1462 1462 1462 1462 1462 1462 1462 1462 1462 1462 1462 1461 1460 1459 1458 1457 1456 1455 1454 1452 1450 1450 1449
1438 1440 1442 1443 1444 1446 1447 1448 1449 1451 1452 1453 1453 1454 1455 1456 1456 1457 1457 1458 1458 1458 1458 1458 1458 1458 1458 1458 1458 1458 1457 1457 1456 1455 1454 1453 1452 1451 1450 1448 1447 1445 1444
1435 1437 1438 1440 1441 1442 1443 1444 1446 1447 1448 1449 1450 1451 1451 1452 1453 1453 1454 1454 1454 1454 1453 1453 1454 1454 1454 1454 1454 1453 1453 1453 1452 1451 1450 1449 1448 1448 1447 1446 1444 1442 1440
1432 1434 1435 1436 1437 1438 1440 1441 1442 1443 1444 1445 1446 1447 1448 1448 1449 1449 1449 1450 1450 1449 1449 1449 1449 1449 1449 1449 1449 1449 1448 1448 1448 1448 1446 1445 1445 1445 1444 1442 1441 1439 1438
1429 1431 1432 1433 1434 1435 1436 1437 1438 1439 1440 1441 1442 1443 1444 1444 1445 1445 1445 1445 1445 1445 1445 1445 1445 1445 1445 1445 1444 1444 1444 1443 1443 1443 1442 1442 1441 1441 1440 1439 1438 1436 1434
1425 1427 1429 1430 1431 1432 1432 1434 1435 1436 1437 1438 1438 1439 1440 1440 1441 1441 1441 1441 1440 1441 1441 1441 1441 1441 1440 1440 1440 1439 1439 1438 1438 1438 1438 1438 1437 1437 1436 1435 1433 1432 1429
1421 1423 1425 1426 1427 1428 1429 1430 1431 1432 1433 1434 1435 1436 1436 1436 1437 1437 1437 1437 1436 1436 1437 1437 1437 1436 1436 1436 1435 1435 1434 1433 1433 1433 1433 1433 1433 1432 1431 1431 1430 1428 1426
1418 1420 1421 1422 1423 1425 1425 1426 1427 1428 1429 1430 1431 1432 1432 1433 1433 1433 1433 1433 1433 1432 1432 1432 1432 1432 1431 1431 1431 1430 1429 1429 1429 1428 1428 1428 1428 1427 1427 1426 1426 1425 1423
1414 1415 1417 1418 1420 1421 1421 1422 1423 1424 1425 1426 1426 1427 1428 1429 1429 1429 1429 1429 1429 1429 1428 1428 1428 1427 1427 1426 1426 1425 1425 1425 1425 1424 1424 1423 1423 1423 1422 1422 1421 1421 1420
1410 1411 1413 1414 1416 1417 1418 1418 1419 1420 1421 1421 1422 1423 1423 1424 1425 1425 1425 1425 1425 1425 1424 1424 1424 1423 1422 1422 1422 1421 1421 1421 1420 1420 1419 1419 1419 1419 1418 1418 1417 1417 1416
1406 1407 1409 1410 1412 1413 1414 1414 1415 1416 1417 1417 1418 1419 1419 1420 1421 1421 1421 1421 1421 1421 1420 1420 1420 1419 1418 1418 1418 1417 1417 1417 1416 1416 1415 1415 1415 1415 1414 1414 1413 1412 1411
1402 1404 1405 1406 1408 1409 1410 1410 1411 1412 1413 1414 1414 1415 1416 1416 1417 1418 1417 1417 1417 1417 1416 1416 1415 1415 1414 1414 1414 1414 1413 1413 1412 1412 1412 1411 1411 1411 1410 1410 1409 1409 1408
1398 1400 1401 1403 1404 1405 1406 1407 1407 1409 1410 1411 1411 1412 1413 1414 1414 1414 1414 1414 1413 1413 1413 1412 1411 1411 1411 1410 1410 1410 1409 1409 1409 1409 1408 1408 1408 1407 1407 1406 1406 1405 1404
1395 1396 1397 1399 1400 1401 1401 1402 1403 1405 1406 1406 1407 1408 1409 1410 1410 1410 1410 1410 1410 1410 1409 1408 1408 1408 1407 1407 1407 1406 1406 1406 1405 1405 1405 1405 1404 1404 1403 1403 1402 1402 1401
1392 1393 1394 1395 1396 1397 1398 1399 1400 1400 1401 1402 1403 1404 1405 1406 1406 1407 1407 1406 1406 1406 1405 1405 1405 1404 1404 1403 1403 1403 1402 1402 1402 1402 1402 1401 1401 1401 1400 1399 1399 1398 1398
1388 1389 1390 1391 1392 1393 1394 1395 1396 1397 1398 1398 1399 1400 1402 1402 1403 1403 1403 1403 1402 1402 1402 1402 1401 1401 1401 1400 1400 1399 1399 1399 1399 1398 1398 1398 1398 1397 1397 1396 1396 1395 1395
1385 1386 1387 1388 1389 1390 1391 1392 1393 1394 1395 1395 1396 1397 1398 1398 1399 1399 1399 1399 1399 1399 1399 1398 1398 1398 1397 1397 1397 1396 1396 1395 1395 1395 1395 1395 1395 1394 1394 1393 1393 1392 1392
1382 1383 1384 1385 1385 1386 1388 1389 1390 1391 1391 1392 1393 1394 1395 1395 1395 1395 1396 1396 1396 1396 1395 1395 1395 1394 1394 1394 1393 1393 1393 1392 1392 1392 1392 1392 1391 1391 1391 1390 1390 1390 1389
1379 1379 1380 1381 1382 1383 1384 1386 1387 1387 1388 1389 1390 1391 1392 1392 1392 1393 1393 1393 1393 1393 1393 1392 1391 1391 1391 1390 1390 1390 1390 1389 1389 1389 1389 1389 1388 1388 1388 1388 1387 1387 1386
1376 1376 1377 1378 1379 1380 1382 1383 1384 1384 1385 1386 1387 1388 1388 1389 1389 1389 1390 1390 1390 1390 1389 1389 1388 1388 1388 1388 1387 1387 1387 1387 1387 1387 1386 1386 1385 1385 1385 1385 1384 1384 1383
1373 1374 1374 1375 1376 1377 1379 1380 1380 1381 1382 1383 1384 1385 1385 1386 1386 1387 1387 1387 1387 1387 1386 1386 1386 1385 1385 1385 1385 1384 1384 1384 1384 1384 1384 1383 1383 1383 1382 1382 1382 1381 1381
1371 1371 1372 1373 1374 1375 1376 1377 1378 1379 1380 1381 1381 1382 1383 1383 1383 1384 1384 1384 1384 1384 1384 1383 1383 1383 1382 1382 1382 1382 1381 1381 1381 1381 1381 1381 1380 1380 1380 1380 1380 1379 1379
1369 1369 1370 1371 1372 1373 1373 1374 1375 1376 1377 1378 1379 1379 1380 1380 1381 1381 1381 1381 1381 1381 1381 1381 1380 1380 1380 1379 1379 1379 1379 1379 1378 1378 1378 1378 1378 1378 1378 1377 1377 1377 1377